Sterling, IL

9:14 AM CDT on September 21, 2019 (GMT -0500)
Whiteside County-Bittorf

Weather History for KSQI - July, 2019

Change the Weather History Date:

Friday, July 19, 2019

  Actual Average Record
Temperature  
Mean Temperature 86 °F -  
Max Temperature 93 °F 81 °F 98 °F (2013)
Min Temperature 80 °F 60 °F 50 °F (2003)
Cooling Degree Days 22    
Growing Degree Days 36 (Base 50)    
Moisture  
Dew Point 78 °F    
Average Humidity 76    
Maximum Humidity 88    
Minimum Humidity 64    
Precipitation  
Precipitation 0.00 in - - ()
Sea Level Pressure  
Sea Level Pressure 29.41 in    
Wind  
Wind Speed 6 mph (WSW)    
Max Wind Speed 13 mph    
Max Gust Speed 21 mph    
Visibility 10 miles    
Events      
Averages and records for this station are not official NWS values.
T = Trace of Precipitation, MM = Missing Value Source: NWS Daily Summary

Daily Weather History Graph

Daily Weather History Graph

Search for Another Location

Airport or City:

Astronomy

Jul. 19, 2019 Rise Set
Actual Time 5:40 AM CDT 8:29 PM CDT
Civil Twilight 5:07 AM CDT 9:01 PM CDT
Nautical Twilight 4:26 AM CDT 9:42 PM CDT
Astronomical Twilight 3:38 AM CDT 10:30 PM CDT
Moon 10:25 PM CDT (7/19) 8:08 AM CDT (7/19)
Length of Visible Light 15h 54m
Length of Day
14h 48m
Waning Gibbous, 93% of the Moon is Illuminated
Jul 19
Waning Gibbous
Jul 24
Last Quarter
Jul 31
New
Aug 7
First Quarter
Aug 15
Full

Hourly Weather History & Observations

Time (CDT) Temp. Heat Index Dew Point Humidity Pressure Visibility Wind Dir Wind Speed Gust Speed Precip Events Conditions
12:56 AM 82.0 °F 91.0 °F 78.1 °F 88% 29.39 in 10.0 mi WSW 5.8 mph - N/A   Clear
1:56 AM 82.0 °F 90.2 °F 77.0 °F 85% 29.37 in 10.0 mi Variable 5.8 mph - N/A   Clear
2:56 AM 82.9 °F 90.8 °F 75.9 °F 79% 29.37 in 10.0 mi WSW 9.2 mph - N/A   Clear
3:56 AM 82.0 °F 88.6 °F 75.0 °F 79% 29.39 in 10.0 mi WSW 8.1 mph - N/A   Clear
4:56 AM 80.1 °F 85.1 °F 75.0 °F 85% 29.39 in 10.0 mi Variable 3.5 mph - N/A   Partly Cloudy
5:56 AM 80.1 °F 85.1 °F 75.0 °F 85% 29.42 in 10.0 mi Variable 3.5 mph - N/A   Mostly Cloudy
6:56 AM 80.1 °F 85.1 °F 75.0 °F 85% 29.44 in 10.0 mi Calm Calm - N/A   Scattered Clouds
7:56 AM 82.0 °F 89.4 °F 75.9 °F 82% 29.42 in 10.0 mi Variable 4.6 mph - N/A   Clear
8:56 AM 82.9 °F 90.8 °F 75.9 °F 79% 29.42 in 10.0 mi WSW 9.2 mph 17.3 mph N/A   Clear
9:56 AM 86.0 °F 96.0 °F 75.9 °F 72% 29.41 in 10.0 mi WSW 11.5 mph 20.7 mph N/A   Clear
10:56 AM 89.1 °F 101.4 °F 77.0 °F 67% 29.43 in 10.0 mi WSW 12.7 mph - N/A   Clear
11:56 AM 90.0 °F 104.5 °F 78.1 °F 68% 29.44 in 10.0 mi WSW 11.5 mph 17.3 mph N/A   Clear
12:56 PM 91.9 °F 108.8 °F 79.0 °F 66% 29.44 in 10.0 mi Variable 4.6 mph - N/A   Clear
1:56 PM 93.0 °F 112.1 °F 80.1 °F 66% 29.42 in 10.0 mi Variable 6.9 mph - N/A   Partly Cloudy
2:56 PM 93.9 °F 113.3 °F 80.1 °F 64% 29.42 in 10.0 mi SW 8.1 mph - N/A   Partly Cloudy
3:56 PM 93.9 °F 115.0 °F 81.0 °F 66% 29.40 in 10.0 mi Variable 5.8 mph - N/A   Partly Cloudy
4:56 PM 93.9 °F 115.0 °F 81.0 °F 66% 29.39 in 10.0 mi Variable 3.5 mph - N/A   Clear
5:56 PM 93.0 °F 112.1 °F 80.1 °F 66% 29.38 in 10.0 mi Variable 6.9 mph - N/A   Clear
6:56 PM 91.0 °F 110.6 °F 81.0 °F 72% 29.37 in 10.0 mi Variable 4.6 mph - N/A   Clear
7:56 PM 89.1 °F 106.4 °F 80.1 °F 75% 29.36 in 10.0 mi Variable 5.8 mph - N/A   Clear
8:56 PM 86.0 °F 100.8 °F 80.1 °F 82% 29.39 in 10.0 mi Calm Calm - N/A   Clear
9:56 PM 84.9 °F 97.5 °F 79.0 °F 82% 29.41 in 10.0 mi Calm Calm - N/A   Clear
10:56 PM 84.0 °F 96.0 °F 79.0 °F 85% 29.43 in 10.0 mi Variable 4.6 mph - N/A   Clear
11:56 PM 84.0 °F 94.8 °F 78.1 °F 82% 29.44 in 10.0 mi Variable 3.5 mph - N/A   Clear